Time,TemperatureF,DewpointF,PressureIn,WindDirection,WindDirectionDegrees,WindSpeedMPH,WindSpeedGustMPH,Humidity,HourlyPrecipIn,Conditions,Clouds,dailyrainin,SoftwareType,DateUTC
2013-09-04 00:03:00,70.0,66.0,30.05,North,0,0.0,-999.0,88,-99.99,,,-99.99,,2013-09-04 05:03:00,
2013-09-04 00:12:00,70.0,66.0,30.05,North,0,0.0,-999.0,88,-99.99,,,-99.99,,2013-09-04 05:12:00,
2013-09-04 00:23:00,70.0,66.0,30.05,North,0,0.0,-999.0,88,-99.99,,,-99.99,,2013-09-04 05:23:00,
2013-09-04 00:43:00,70.0,66.0,30.06,North,0,0.0,-999.0,88,-99.99,,,-99.99,,2013-09-04 05:43:00,
2013-09-04 01:12:00,70.0,66.0,30.06,North,0,0.0,-999.0,88,-99.99,,,-99.99,,2013-09-04 06:12:00,
2013-09-04 01:22:00,70.0,66.0,30.06,North,0,0.0,-999.0,88,-99.99,,,-99.99,,2013-09-04 06:22:00,
2013-09-04 01:42:00,68.0,64.0,30.06,North,0,0.0,-999.0,88,-99.99,,,-99.99,,2013-09-04 06:42:00,
2013-09-04 01:52:00,66.0,64.0,30.07,North,0,0.0,-999.0,93,-99.99,,,-99.99,,2013-09-04 06:52:00,
2013-09-04 02:02:00,66.0,64.0,30.07,North,0,0.0,-999.0,93,-99.99,,,-99.99,,2013-09-04 07:02:00,
2013-09-04 02:22:00,64.0,64.0,30.07,North,0,0.0,-999.0,100,-99.99,,,-99.99,,2013-09-04 07:22:00,
2013-09-04 02:42:00,64.0,63.0,30.08,North,0,0.0,-999.0,93,-99.99,,,-99.99,,2013-09-04 07:42:00,
2013-09-04 03:22:00,63.0,63.0,30.08,North,0,0.0,-999.0,100,-99.99,,,-99.99,,2013-09-04 08:22:00,
2013-09-04 03:43:00,64.0,64.0,30.08,North,0,0.0,-999.0,100,-99.99,,,-99.99,,2013-09-04 08:43:00,
2013-09-04 04:22:00,64.0,64.0,30.08,North,0,0.0,-999.0,100,-99.99,,,-99.99,,2013-09-04 09:22:00,
2013-09-04 04:43:00,66.0,64.0,30.08,North,0,0.0,-999.0,93,-99.99,,,-99.99,,2013-09-04 09:43:00,
2013-09-04 05:23:00,66.0,64.0,30.09,North,0,0.0,-999.0,93,-99.99,,,-99.99,,2013-09-04 10:23:00,
2013-09-04 05:42:00,66.0,64.0,30.09,North,0,0.0,-999.0,93,-99.99,,,-99.99,,2013-09-04 10:42:00,
2013-09-04 06:12:00,66.0,64.0,30.10,North,0,0.0,-999.0,93,-99.99,,,-99.99,,2013-09-04 11:12:00,
2013-09-04 06:22:00,66.0,64.0,30.10,North,0,0.0,-999.0,93,-99.99,,,-99.99,,2013-09-04 11:22:00,
2013-09-04 06:42:00,64.0,63.0,30.10,North,0,0.0,-999.0,93,-99.99,,,-99.99,,2013-09-04 11:42:00,
2013-09-04 07:21:00,66.0,63.0,30.11,South,170,5.0,-999.0,88,-99.99,,,-99.99,,2013-09-04 12:21:00,
2013-09-04 07:42:00,66.0,63.0,30.12,South,170,5.0,-999.0,88,-99.99,,,-99.99,,2013-09-04 12:42:00,
2013-09-04 08:22:00,66.0,64.0,30.13,North,0,0.0,-999.0,93,-99.99,,,-99.99,,2013-09-04 13:22:00,
2013-09-04 08:42:00,68.0,64.0,30.13,South,170,5.0,-999.0,88,-99.99,,,-99.99,,2013-09-04 13:42:00,
2013-09-04 08:52:00,70.0,64.0,30.13,SSE,160,5.0,-999.0,82,-99.99,,,-99.99,,2013-09-04 13:52:00,
2013-09-04 09:02:00,70.0,64.0,30.13,SSE,160,5.0,-999.0,82,-99.99,,,-99.99,,2013-09-04 14:02:00,
2013-09-04 09:11:00,70.0,64.0,30.13,SSE,160,5.0,-999.0,82,-99.99,,,-99.99,,2013-09-04 14:11:00,
2013-09-04 09:21:00,70.0,64.0,30.13,SSE,160,5.0,-999.0,82,-99.99,,,-99.99,,2013-09-04 14:21:00,
2013-09-04 09:42:00,72.0,64.0,30.14,SSE,160,6.0,-999.0,78,-99.99,,,-99.99,,2013-09-04 14:42:00,
2013-09-04 10:12:00,72.0,64.0,30.14,North,0,0.0,-999.0,78,-99.99,,,-99.99,,2013-09-04 15:12:00,
2013-09-04 10:22:00,72.0,64.0,30.14,North,0,0.0,-999.0,78,-99.99,,,-99.99,,2013-09-04 15:22:00,
2013-09-04 10:43:00,75.0,64.0,30.14,SSE,160,6.0,-999.0,69,-99.99,,,-99.99,,2013-09-04 15:43:00,
2013-09-04 10:53:00,75.0,64.0,30.15,North,0,0.0,-999.0,69,-99.99,,,-99.99,,2013-09-04 15:53:00,
2013-09-04 11:04:00,75.0,64.0,30.15,North,0,0.0,-999.0,69,-99.99,,,-99.99,,2013-09-04 16:04:00,
2013-09-04 11:12:00,75.0,64.0,30.15,North,0,0.0,-999.0,69,-99.99,,,-99.99,,2013-09-04 16:12:00,
2013-09-04 11:23:00,75.0,64.0,30.15,North,0,0.0,-999.0,69,-99.99,,,-99.99,,2013-09-04 16:23:00,
2013-09-04 11:43:00,77.0,66.0,30.15,SSE,150,5.0,-999.0,69,-99.99,,,-99.99,,2013-09-04 16:43:00,
2013-09-04 12:23:00,79.0,66.0,30.16,North,0,0.0,-999.0,65,-99.99,,,-99.99,,2013-09-04 17:23:00,
2013-09-04 12:42:00,81.0,66.0,30.16,North,0,0.0,-999.0,61,-99.99,,,-99.99,,2013-09-04 17:42:00,
2013-09-04 13:13:00,82.0,70.0,30.15,North,0,0.0,-999.0,65,-99.99,,,-99.99,,2013-09-04 18:13:00,
2013-09-04 13:22:00,82.0,70.0,30.15,North,0,0.0,-999.0,65,-99.99,,,-99.99,,2013-09-04 18:22:00,
2013-09-04 13:42:00,84.0,66.0,30.14,South,180,6.0,-999.0,54,-99.99,,,-99.99,,2013-09-04 18:42:00,
2013-09-04 13:52:00,84.0,68.0,30.13,North,-99,5.0,-999.0,58,-99.99,,,-99.99,,2013-09-04 18:52:00,
2013-09-04 14:02:00,84.0,68.0,30.13,North,-99,5.0,-999.0,58,-99.99,,,-99.99,,2013-09-04 19:02:00,
2013-09-04 14:22:00,84.0,64.0,30.13,North,0,0.0,-999.0,51,-99.99,,,-99.99,,2013-09-04 19:22:00,
2013-09-04 14:42:00,88.0,64.0,30.12,South,170,9.0,-999.0,45,-99.99,,,-99.99,,2013-09-04 19:42:00,
2013-09-04 15:11:00,86.0,64.0,30.12,SSE,150,7.0,-999.0,48,-99.99,,,-99.99,,2013-09-04 20:11:00,
2013-09-04 15:22:00,86.0,64.0,30.12,SSE,150,7.0,-999.0,48,-99.99,,,-99.99,,2013-09-04 20:22:00,
2013-09-04 15:43:00,86.0,64.0,30.11,South,170,7.0,-999.0,48,-99.99,,,-99.99,,2013-09-04 20:43:00,
2013-09-04 16:12:00,84.0,66.0,30.11,SE,130,5.0,-999.0,54,-99.99,,,-99.99,,2013-09-04 21:12:00,
2013-09-04 16:22:00,84.0,66.0,30.11,SE,130,5.0,-999.0,54,-99.99,,,-99.99,,2013-09-04 21:22:00,
2013-09-04 16:44:00,88.0,66.0,30.11,SE,140,6.0,-999.0,48,-99.99,,,-99.99,,2013-09-04 21:44:00,
2013-09-04 17:23:00,86.0,61.0,30.10,SSE,150,5.0,-999.0,42,-99.99,,,-99.99,,2013-09-04 22:23:00,
2013-09-04 17:43:00,86.0,63.0,30.10,SE,140,5.0,-999.0,45,-99.99,,,-99.99,,2013-09-04 22:43:00,
2013-09-04 18:22:00,84.0,66.0,30.11,North,0,0.0,-999.0,54,-99.99,,,-99.99,,2013-09-04 23:22:00,
2013-09-04 18:42:00,82.0,64.0,30.11,North,0,0.0,-999.0,54,-99.99,,,-99.99,,2013-09-04 23:42:00,
2013-09-04 18:52:00,82.0,66.0,30.11,North,0,0.0,-999.0,58,-99.99,,,-99.99,,2013-09-04 23:52:00,
2013-09-04 19:01:00,82.0,66.0,30.11,North,0,0.0,-999.0,58,-99.99,,,-99.99,,2013-09-05 00:01:00,
2013-09-04 19:22:00,81.0,70.0,30.11,North,0,0.0,-999.0,69,-99.99,,,-99.99,,2013-09-05 00:22:00,
2013-09-04 19:42:00,81.0,70.0,30.11,North,0,0.0,-999.0,69,-99.99,,,-99.99,,2013-09-05 00:42:00,
2013-09-04 19:52:00,79.0,66.0,30.11,North,0,0.0,-999.0,65,-99.99,,,-99.99,,2013-09-05 00:52:00,
2013-09-04 20:01:00,79.0,66.0,30.11,North,0,0.0,-999.0,65,-99.99,,,-99.99,,2013-09-05 01:01:00,
2013-09-04 20:22:00,79.0,68.0,30.11,North,0,0.0,-999.0,69,-99.99,,,-99.99,,2013-09-05 01:22:00,
2013-09-04 20:42:00,79.0,66.0,30.11,North,0,0.0,-999.0,65,-99.99,,,-99.99,,2013-09-05 01:42:00,
2013-09-04 21:22:00,79.0,68.0,30.13,SE,140,5.0,-999.0,69,-99.99,,,-99.99,,2013-09-05 02:22:00,
2013-09-04 22:11:00,75.0,66.0,30.13,North,0,0.0,-999.0,73,-99.99,,,-99.99,,2013-09-05 03:11:00,
2013-09-04 22:22:00,75.0,66.0,30.13,North,0,0.0,-999.0,73,-99.99,,,-99.99,,2013-09-05 03:22:00,
2013-09-04 22:45:00,73.0,68.0,30.14,North,0,0.0,-999.0,83,-99.99,,,-99.99,,2013-09-05 03:45:00,
2013-09-04 23:13:00,73.0,66.0,30.15,North,0,0.0,-999.0,78,-99.99,,,-99.99,,2013-09-05 04:13:00,
2013-09-04 23:24:00,73.0,66.0,30.15,North,0,0.0,-999.0,78,-99.99,,,-99.99,,2013-09-05 04:24:00,
2013-09-04 23:44:00,73.0,68.0,30.15,North,0,0.0,-999.0,83,-99.99,,,-99.99,,2013-09-05 04:44:00,